Weather History for Monroe, WI

Change the Weather History Date:

Friday, August 31, 2012

  Actual Average Record
Temperature  
Mean Temperature 80 °F -  
Max Temperature 91 °F 89 °F 91 °F (2012)
Min Temperature 68 °F 60 °F 51 °F (1999)
Cooling Degree Days 14    
Growing Degree Days 30 (Base 50)    
Moisture  
Dew Point 59 °F    
Average Humidity 53    
Maximum Humidity 78    
Minimum Humidity 29    
Precipitation  
Precipitation 0.00 in - - ()
Sea Level Pressure  
Sea Level Pressure 30.03 in    
Wind  
Wind Speed 11 mph (SW)    
Max Wind Speed 18 mph    
Max Gust Speed 23 mph    
Visibility 10 miles    
Events      
Averages and records for this station are not official NWS values.
T = Trace of Precipitation, MM = Missing Value Source: NWS Daily Summary

Daily Weather History Graph

Daily Weather History Graph

Search for Another Location

Airport:

Trip Planner

Search our weather history database for the weather conditions in past years. The results will help you decide how hot, cold, wet, or windy it might be!

Date:

Astronomy

Aug. 31, 2012 Rise Set
Actual Time 6:22 AM CDT 7:33 PM CDT
Civil Twilight 5:53 AM CDT 8:02 PM CDT
Nautical Twilight 5:18 AM CDT 8:37 PM CDT
Astronomical Twilight 4:42 AM CDT 9:13 PM CDT
Moon 7:17 PM CDT (8/31) 6:29 AM CDT (8/31)
Length of Visible Light 14h 08m
Length of Day
13h 10m
Full, 100% of the Moon is Illuminated
Aug 31
Full
Sep 8
Last Quarter
Sep 15
New
Sep 22
First Quarter
Sep 29
Full

Hourly Weather History & Observations

Time (CDT) Temp. Heat Index Dew Point Humidity Pressure Visibility Wind Dir Wind Speed Gust Speed Precip Events Conditions
12:15 AM 71.6 °F - 60.8 °F 69% 29.97 in 10.0 mi SSW 12.7 mph - N/A   Clear
12:35 AM 71.6 °F - 60.8 °F 69% 29.97 in 10.0 mi SSW 12.7 mph - N/A   Clear
1:15 AM 71.6 °F - 60.8 °F 69% 29.97 in 10.0 mi SSW 11.5 mph - N/A   Clear
1:35 AM 71.6 °F - 60.8 °F 69% 29.97 in 10.0 mi SSW 11.5 mph - N/A   Clear
1:55 AM 71.6 °F - 60.8 °F 69% 29.97 in 10.0 mi SW 12.7 mph - N/A   Clear
2:15 AM 71.6 °F - 60.8 °F 69% 29.98 in 10.0 mi SSW 11.5 mph - N/A   Clear
2:35 AM 71.6 °F - 60.8 °F 69% 29.98 in 10.0 mi SW 11.5 mph - N/A   Clear
2:55 AM 69.8 °F - 60.8 °F 73% 29.98 in 10.0 mi SSW 11.5 mph - N/A   Clear
3:15 AM 69.8 °F - 60.8 °F 73% 29.98 in 10.0 mi SSW 11.5 mph - N/A   Clear
3:35 AM 69.8 °F - 60.8 °F 73% 29.98 in 10.0 mi SW 10.4 mph - N/A   Clear
3:55 AM 69.8 °F - 60.8 °F 73% 29.98 in 10.0 mi SSW 10.4 mph - N/A   Clear
4:15 AM 68.0 °F - 60.8 °F 78% 29.99 in 10.0 mi SSW 10.4 mph - N/A   Clear
4:35 AM 68.0 °F - 59.0 °F 73% 29.99 in 10.0 mi SSW 10.4 mph - N/A   Clear
4:55 AM 68.0 °F - 59.0 °F 73% 29.99 in 10.0 mi SSW 12.7 mph - N/A   Clear
5:15 AM 68.0 °F - 59.0 °F 73% 30.00 in 10.0 mi SW 10.4 mph - N/A   Clear
5:35 AM 68.0 °F - 59.0 °F 73% 30.00 in 10.0 mi SW 12.7 mph - N/A   Clear
5:55 AM 68.0 °F - 59.0 °F 73% 30.00 in 10.0 mi SW 11.5 mph - N/A   Clear
6:15 AM 68.0 °F - 59.0 °F 73% 30.01 in 10.0 mi SW 10.4 mph - N/A   Clear
6:35 AM 68.0 °F - 59.0 °F 73% 30.02 in 10.0 mi SW 11.5 mph - N/A   Clear
6:55 AM 69.8 °F - 59.0 °F 68% 30.03 in 10.0 mi SW 11.5 mph - N/A   Clear
7:15 AM 69.8 °F - 59.0 °F 68% 30.03 in 10.0 mi SW 10.4 mph - N/A   Clear
7:35 AM 71.6 °F - 59.0 °F 64% 30.04 in 10.0 mi SW 10.4 mph - N/A   Clear
7:55 AM 71.6 °F - 59.0 °F 64% 30.04 in 10.0 mi SW 11.5 mph - N/A   Clear
8:15 AM 73.4 °F - 59.0 °F 61% 30.04 in 10.0 mi SW 11.5 mph - N/A   Clear
8:35 AM 75.2 °F - 59.0 °F 57% 30.05 in 10.0 mi SW 13.8 mph - N/A   Clear
8:55 AM 77.0 °F - 59.0 °F 54% 30.05 in 10.0 mi SW 13.8 mph - N/A   Clear
9:15 AM 78.8 °F - 59.0 °F 51% 30.05 in 10.0 mi WSW 15.0 mph 21.9 mph N/A   Clear
9:35 AM 80.6 °F 81.1 °F 59.0 °F 48% 30.05 in 10.0 mi WSW 17.3 mph - N/A   Clear
9:55 AM 82.4 °F 82.5 °F 59.0 °F 45% 30.05 in 10.0 mi West 16.1 mph - N/A   Clear
10:15 AM 82.4 °F 82.5 °F 59.0 °F 45% 30.05 in 10.0 mi WSW 18.4 mph - N/A   Clear
10:35 AM 84.2 °F 83.8 °F 59.0 °F 42% 30.05 in 10.0 mi WSW 15.0 mph - N/A   Clear
10:55 AM 86.0 °F 84.9 °F 57.2 °F 37% 30.05 in 10.0 mi WSW 12.7 mph 18.4 mph N/A   Clear
11:15 AM 87.8 °F 86.1 °F 55.4 °F 33% 30.05 in 10.0 mi WSW 15.0 mph 20.7 mph N/A   Clear
11:35 AM 87.8 °F 86.1 °F 55.4 °F 33% 30.05 in 10.0 mi West 15.0 mph - N/A   Clear
11:55 AM 89.6 °F 87.7 °F 55.4 °F 31% 30.05 in 10.0 mi WSW 12.7 mph - N/A   Clear
12:15 PM 91.4 °F 89.4 °F 55.4 °F 29% 30.05 in 10.0 mi SW 16.1 mph 19.6 mph N/A   Clear
12:35 PM 91.4 °F 89.4 °F 55.4 °F 29% 30.05 in 10.0 mi WSW 13.8 mph 21.9 mph N/A   Clear
12:55 PM 91.4 °F 89.4 °F 55.4 °F 29% 30.05 in 10.0 mi SW 10.4 mph 18.4 mph N/A   Clear
1:15 PM 91.4 °F 90.7 °F 59.0 °F 34% 30.05 in 10.0 mi SW 11.5 mph - N/A   Clear
1:35 PM 91.4 °F 90.7 °F 59.0 °F 34% 30.05 in 10.0 mi SSW 9.2 mph 16.1 mph N/A   Clear
1:55 PM 91.4 °F 90.7 °F 59.0 °F 34% 30.04 in 10.0 mi SSW 10.4 mph - N/A   Clear
2:15 PM 91.4 °F 90.7 °F 59.0 °F 34% 30.04 in 10.0 mi SW 13.8 mph 17.3 mph N/A   Clear
2:20 PM 91.4 °F 90.7 °F 59.0 °F 34% 30.04 in 10.0 mi SW 11.5 mph 17.3 mph N/A   Clear
2:35 PM 91.4 °F 90.7 °F 59.0 °F 34% 30.04 in 10.0 mi SW 10.4 mph - N/A   Clear
2:55 PM 91.4 °F 90.7 °F 59.0 °F 34% 30.03 in 10.0 mi SW 9.2 mph 19.6 mph N/A   Clear
3:15 PM 89.6 °F 88.9 °F 59.0 °F 36% 30.03 in 10.0 mi SW 8.1 mph 16.1 mph N/A   Clear
3:35 PM 91.4 °F 89.9 °F 57.2 °F 31% 30.03 in 10.0 mi WSW 8.1 mph - N/A   Clear
3:55 PM 91.4 °F 89.4 °F 55.4 °F 29% 30.02 in 10.0 mi WSW 8.1 mph - N/A   Clear
4:15 PM 89.6 °F 88.9 °F 59.0 °F 36% 30.02 in 10.0 mi WSW 8.1 mph - N/A   Clear
4:35 PM 89.6 °F 89.5 °F 60.8 °F 38% 30.01 in 10.0 mi WSW 5.8 mph - N/A   Clear
4:55 PM 89.6 °F 89.5 °F 60.8 °F 38% 30.01 in 10.0 mi West 4.6 mph - N/A   Clear
5:15 PM 89.6 °F 89.5 °F 60.8 °F 38% 30.01 in 10.0 mi WSW 8.1 mph - N/A   Clear
5:35 PM 87.8 °F 87.6 °F 60.8 °F 40% 30.01 in 10.0 mi WSW 6.9 mph - N/A   Clear
5:55 PM 87.8 °F 87.6 °F 60.8 °F 40% 30.02 in 10.0 mi West 4.6 mph - N/A   Clear
6:15 PM 87.8 °F 88.5 °F 62.6 °F 43% 30.01 in 10.0 mi SW 4.6 mph - N/A   Clear
6:35 PM 86.0 °F 86.6 °F 62.6 °F 45% 30.01 in 10.0 mi SW 5.8 mph - N/A   Clear
6:55 PM 86.0 °F 87.3 °F 64.4 °F 48% 30.01 in 10.0 mi SW 4.6 mph - N/A   Clear
7:15 PM 84.2 °F 85.6 °F 64.4 °F 51% 30.02 in 10.0 mi SW 3.5 mph - N/A   Clear
7:35 PM 84.2 °F 85.0 °F 62.6 °F 48% 30.03 in 10.0 mi WSW 3.5 mph - N/A   Clear
7:55 PM 80.6 °F 82.3 °F 64.4 °F 58% 30.03 in 10.0 mi North 8.1 mph - N/A   Clear
8:15 PM 80.6 °F 82.3 °F 64.4 °F 58% 30.04 in 10.0 mi NE 8.1 mph - N/A   Clear
8:35 PM 78.8 °F - 66.2 °F 65% 30.05 in 10.0 mi NE 11.5 mph - N/A   Clear
8:55 PM 77.0 °F - 64.4 °F 65% 30.06 in 10.0 mi ENE 10.4 mph - N/A   Clear
9:15 PM 77.0 °F - 62.6 °F 61% 30.06 in 10.0 mi ENE 13.8 mph 17.3 mph N/A   Clear
9:35 PM 73.4 °F - 60.8 °F 65% 30.07 in 10.0 mi ENE 17.3 mph 23.0 mph N/A   Clear
9:55 PM 73.4 °F - 57.2 °F 57% 30.07 in 10.0 mi ENE 12.7 mph 17.3 mph N/A   Clear
10:15 PM 71.6 °F - 55.4 °F 57% 30.08 in 10.0 mi ENE 9.2 mph 17.3 mph N/A   Clear
10:35 PM 71.6 °F - 55.4 °F 57% 30.08 in 10.0 mi ENE 9.2 mph - N/A   Clear
10:55 PM 71.6 °F - 53.6 °F 53% 30.09 in 10.0 mi ENE 6.9 mph - N/A   Clear
11:15 PM 71.6 °F - 51.8 °F 50% 30.09 in 10.0 mi East 6.9 mph - N/A   Clear
11:35 PM 69.8 °F - 51.8 °F 53% 30.10 in 10.0 mi ENE 8.1 mph - N/A   Clear
11:55 PM 69.8 °F - 51.8 °F 53% 30.10 in 10.0 mi ENE 6.9 mph - N/A   Clear